Wind_Speed
10 11 12 11 10 9 8 9 9 9 10 10 10 9 9 10 13 14 13 11 7 6 5 3 4 3 3 4 5 5 6 7 7 6 6 5 4 4 3 3 4 5 6 6 6 5 4 5 6 6 7 7 7 7 7 6 6 5 5 5 5 6 6 7 7 8 9 9 10 11 11 12 13 13
11 11 12 12 11 9 8 9 10 10 9 8 8 9 9 9 10 11 13 13 8 5 5 4 5 2 2 3 4 5 7 8 7 6 6 4 3 3 3 2 3 5 5 6 7 6 5 5 6 7 8 9 9 9 9 9 9 8 8 7 7 7 7 7 7 8 8 8 9 9 9 9 10 10
10 11 12 13 12 11 10 10 10 10 9 8 8 8 9 9 9 9 11 12 8 6 5 5 4 2 2 3 3 5 7 7 7 6 6 4 2 2 2 3 4 5 5 6 7 6 5 5 6 7 8 9 10 11 10 10 10 10 10 10 10 9 9 9 8 8 9 9 9 9 9 9 10 10
9 10 12 13 12 11 10 10 10 10 9 9 9 9 9 10 9 8 8 9 7 6 5 4 4 3 3 3 3 5 6 7 7 6 6 5 3 2 2 4 5 6 6 6 7 7 6 5 6 7 8 9 10 11 12 12 11 11 11 11 11 11 11 11 11 11 11 10 10 10 10 10 11 11
8 10 13 13 12 11 11 11 11 10 9 9 9 9 9 9 9 8 7 9 8 7 6 5 4 4 4 4 3 3 5 6 6 6 5 6 5 4 4 4 5 7 7 7 8 8 7 6 6 6 7 8 9 11 12 12 13 13 13 13 13 13 13 13 13 13 13 13 12 12 12 12 12 12
8 9 12 14 14 13 13 13 12 11 11 12 12 11 9 9 9 8 7 10 11 9 7 7 7 6 6 5 4 5 5 6 8 8 7 6 6 6 5 5 7 8 9 8 8 8 8 6 6 6 6 7 8 9 10 11 11 12 12 13 14 15 15 15 15 15 15 15 14 14 14 14 14 14
10 10 11 13 14 14 15 15 15 15 14 13 13 11 10 9 9 9 8 10 11 10 8 8 8 8 9 8 8 8 8 8 10 10 8 8 8 7 7 7 8 10 10 9 8 8 9 8 7 6 6 6 7 8 9 9 10 10 10 11 12 13 15 15 15 16 16 16 16 16 15 15 15 15
13 12 14 14 13 14 16 17 17 16 14 13 14 13 11 10 9 10 11 11 11 11 9 7 7 10 11 11 11 12 11 11 11 11 10 10 11 11 10 9 9 10 10 9 8 9 9 9 7 7 7 7 8 8 9 9 10 10 11 10 10 11 12 14 14 15 16 17 17 17 17 17 17 16
16 16 17 17 14 14 14 14 15 16 15 15 16 15 13 11 10 11 12 11 10 11 11 9 8 10 12 12 12 13 13 13 13 13 13 13 14 14 14 12 10 11 11 10 9 9 9 9 8 7 7 8 9 9 10 11 11 12 12 12 12 12 12 13 14 14 15 16 16 17 18 18 18 18
17 16 18 18 17 17 16 15 15 15 15 15 15 13 12 11 10 11 11 10 10 12 12 11 11 11 12 12 12 13 14 15 15 15 15 15 16 16 16 15 12 11 11 10 10 9 8 8 7 7 8 8 9 9 10 11 12 13 14 14 15 15 15 15 15 15 16 16 16 17 18 18 19 19
17 16 17 17 18 19 18 17 16 15 14 12 11 12 12 11 10 11 11 11 11 12 13 14 13 12 11 12 11 12 14 15 16 16 17 18 18 17 17 16 14 12 12 12 12 12 10 9 8 8 8 8 8 8 8 8 9 10 12 13 15 16 16 17 17 17 18 18 18 19 19 19 20 21
18 18 17 17 17 17 17 16 14 12 12 11 9 10 11 9 10 12 12 12 12 13 15 15 14 13 12 12 11 12 13 14 14 14 16 17 18 18 18 17 15 14 14 15 15 15 13 12 11 10 9 8 8 9 9 7 6 6 8 9 11 13 14 15 16 17 18 19 19 20 20 21 21 22
20 19 19 18 16 15 15 14 12 10 11 10 10 10 9 9 10 12 12 12 12 13 13 14 14 15 15 13 12 12 12 13 13 13 14 15 16 17 17 16 15 15 16 17 18 17 16 15 15 14 12 10 9 9 10 9 6 6 7 8 9 10 11 12 13 14 15 16 17 18 18 19 20 21
18 18 19 18 16 14 13 12 12 11 11 11 12 11 9 9 11 12 13 13 13 13 13 13 14 15 15 13 12 12 12 12 13 14 14 14 14 15 17 17 16 16 17 18 19 18 17 17 18 17 15 13 12 10 11 11 10 9 8 8 9 10 11 12 12 13 14 15 15 16 16 17 17 18
17 17 17 17 16 15 14 13 13 12 12 12 13 13 11 10 12 13 14 14 14 14 14 14 14 15 16 14 12 12 12 11 12 13 13 13 13 14 16 17 17 17 18 19 20 19 18 18 19 18 17 16 15 13 13 13 13 12 10 9 10 12 13 13 13 14 14 15 16 17 16 16 16 16
18 17 17 16 15 15 16 15 13 12 13 13 13 13 12 11 12 13 14 14 14 14 15 15 15 16 16 15 14 13 13 13 13 14 14 14 14 14 15 17 17 17 17 19 20 20 19 20 20 19 18 17 16 16 16 15 15 14 12 11 11 13 14 14 14 14 14 15 16 17 17 17 16 15
18 18 17 17 15 15 16 15 13 12 13 13 14 14 13 12 12 12 12 13 13 14 15 16 16 15 16 16 16 15 16 16 16 16 16 17 17 16 17 18 18 17 18 19 21 21 21 22 22 21 19 18 17 17 18 18 17 17 15 13 14 14 14 14 14 14 14 15 15 16 17 16 16 15
18 18 17 16 15 15 15 14 13 13 14 14 14 14 14 14 14 14 13 13 14 15 16 16 16 15 15 17 17 17 17 18 19 18 18 18 20 20 21 22 21 21 21 21 21 22 22 22 24 23 20 19 18 18 19 19 19 19 17 16 15 14 14 14 14 14 14 14 14 15 15 15 14 14
18 17 16 15 15 15 15 14 14 15 16 16 16 15 15 16 16 15 15 15 16 16 17 17 17 16 16 18 19 19 19 19 20 21 20 20 22 23 23 25 25 24 25 24 24 26 25 24 25 24 22 20 20 19 20 20 20 20 19 18 17 15 14 14 13 12 11 11 12 13 13 13 12 12
18 17 16 17 16 15 14 15 15 17 18 18 18 17 16 16 17 17 17 18 18 18 18 19 18 18 19 20 20 20 20 21 21 21 22 23 24 23 24 25 26 26 26 24 25 27 27 26 26 25 22 22 21 20 21 20 21 21 21 20 18 16 14 14 13 11 9 9 10 11 11 11 10 10
18 17 17 17 17 16 16 16 16 18 19 20 19 18 18 18 17 17 17 18 18 18 18 18 19 20 21 22 22 21 21 22 22 22 23 24 23 23 24 26 26 27 27 25 24 26 28 27 26 25 23 23 22 21 21 21 21 22 22 22 20 16 14 14 12 9 7 7 9 10 10 10 10 9
18 17 17 17 17 17 17 16 16 17 18 18 18 18 18 17 17 17 17 17 17 18 19 20 20 21 22 22 23 23 22 21 22 22 22 22 23 24 25 26 26 27 28 27 25 27 29 28 26 25 25 24 23 22 21 21 22 23 23 23 21 17 15 13 11 7 5 6 8 10 10 10 9 9
16 16 16 16 17 17 17 15 13 13 14 15 15 16 16 16 17 18 19 19 19 20 21 21 22 21 21 22 23 24 23 22 22 21 20 21 22 24 24 23 24 26 28 27 26 28 30 29 27 26 25 24 23 22 22 23 24 24 24 24 23 20 17 13 10 7 5 6 8 10 10 10 10 10
14 15 15 16 16 16 15 14 13 13 13 13 14 14 15 16 17 18 19 20 21 21 22 22 22 22 23 23 23 23 23 23 23 23 22 21 21 23 23 23 23 26 27 27 26 28 29 29 28 28 26 25 23 22 22 23 24 26 26 25 24 22 18 13 9 6 5 6 7 9 10 10 10 10
14 15 15 16 16 14 13 13 13 13 13 13 13 13 14 14 16 17 17 18 19 20 21 21 21 21 22 22 21 20 20 20 20 21 21 21 21 22 22 23 24 24 25 25 26 27 29 29 30 28 27 26 25 24 23 22 22 25 28 26 23 21 16 12 9 7 6 5 5 6 9 10 11 11
15 16 16 15 13 10 9 9 10 10 11 11 10 10 10 11 12 12 13 14 15 16 16 17 17 17 17 16 15 14 14 14 15 15 15 17 18 17 17 18 19 19 20 22 24 25 26 28 29 27 25 25 25 23 22 21 20 22 24 24 23 22 18 14 11 10 8 6 4 5 6 8 9 9
14 13 12 10 6 3 3 4 5 6 6 7 6 6 7 7 8 8 9 10 10 10 11 11 11 11 11 11 10 9 9 9 10 10 10 11 12 12 12 14 15 16 18 19 21 22 22 23 25 24 23 22 22 21 20 20 20 20 19 20 23 23 20 16 13 11 9 8 7 7 6 6 7 7
6 3 2 1 3 4 4 3 4 5 6 6 6 6 6 7 7 8 8 8 7 6 6 6 6 6 6 5 4 3 4 4 5 7 8 8 9 10 11 12 12 14 14 15 16 16 15 16 18 18 17 17 17 18 19 20 21 21 18 17 21 22 19 16 14 12 11 10 10 9 8 8 8 9
3 6 8 9 9 8 7 7 8 9 9 9 8 8 8 9 10 10 10 9 8 7 7 7 7 6 5 4 4 3 3 3 4 5 6 7 7 8 9 9 10 11 11 11 10 9 8 8 10 9 9 10 12 14 16 16 16 16 15 14 16 19 19 17 16 14 12 12 11 11 10 10 11 11
11 13 13 13 11 10 9 10 11 12 12 12 10 9 9 10 12 13 12 11 11 11 10 10 10 9 9 7 7 6 5 5 4 5 6 6 6 6 7 7 8 8 8 8 7 6 5 5 5 6 7 7 8 11 12 11 10 10 10 10 12 13 15 16 15 14 14 13 12 12 13 12 12 12
16 16 15 13 11 10 11 11 12 13 12 12 11 10 10 11 13 14 14 14 14 14 13 11 10 10 9 8 7 7 7 7 7 7 7 7 7 6 6 5 5 6 6 6 5 4 4 4 4 4 5 6 7 9 9 9 9 8 8 8 8 8 8 8 9 10 12 13 13 13 14 14 13 13
17 16 14 12 10 10 10 10 11 11 12 12 11 11 11 11 12 12 12 13 15 15 13 12 11 11 11 10 10 9 9 10 10 10 9 8 7 6 5 5 5 5 4 3 3 3 2 2 2 2 3 4 6 7 8 8 10 10 10 9 9 8 7 6 6 6 8 11 12 13 13 13 13 13
15 14 12 11 10 8 8 8 10 12 13 12 11 11 10 10 10 10 11 12 14 13 12 11 11 11 12 12 12 11 11 11 12 11 10 9 8 6 5 4 4 3 3 2 3 3 3 2 1 1 1 2 3 5 6 7 8 9 10 10 10 9 7 6 6 6 7 9 10 10 11 12 13 14
11 11 10 9 8 7 7 9 10 12 12 12 12 11 10 10 11 11 11 12 12 11 11 10 10 10 10 11 11 11 11 11 11 10 10 10 10 9 8 6 5 5 4 4 4 4 5 4 4 4 3 3 2 3 4 4 4 6 7 8 8 7 6 6 7 7 7 7 8 9 11 13 14 16
9 9 9 10 9 7 7 8 9 10 10 11 11 11 11 11 12 11 12 12 12 12 11 10 9 9 10 10 10 10 10 9 9 8 8 8 8 8 8 8 7 7 6 6 6 6 5 5 6 6 6 6 5 5 5 6 5 5 5 6 7 7 6 7 8 9 8 8 9 10 12 13 15 15
10 10 9 9 8 6 6 7 7 8 9 10 11 11 11 12 13 13 13 13 13 12 12 11 10 10 10 10 9 9 9 8 8 8 8 8 8 8 7 7 7 7 7 6 6 6 7 7 8 8 8 8 8 7 7 6 5 4 3 3 4 4 5 6 7 8 9 10 10 11 12 14 15 16
8 8 7 6 5 5 6 6 6 7 9 10 11 12 12 12 12 11 10 10 10 10 11 10 10 10 9 9 8 8 8 9 9 9 9 9 9 9 9 8 8 8 7 6 6 6 7 7 8 9 8 8 7 5 4 4 4 4 5 6 7 7 8 8 9 9 10 10 11 13 14 15 16 17
5 5 5 5 5 5 5 6 6 7 9 9 10 11 11 11 10 10 10 10 11 12 12 12 11 11 10 10 9 9 8 8 9 9 8 8 9 9 9 8 8 8 7 6 6 6 6 6 6 7 7 7 6 5 3 3 5 7 9 10 10 11 11 11 12 13 13 14 14 15 15 15 15 15
5 5 5 5 5 5 5 6 7 8 9 9 10 12 12 12 13 14 15 16 16 16 16 15 15 14 13 12 12 12 12 11 10 9 7 7 7 7 7 7 6 6 6 7 7 6 6 6 6 6 7 7 7 8 8 7 7 8 8 8 7 7 7 7 8 10 12 13 13 12 12 12 12 13
4 4 5 5 6 6 7 7 8 9 9 10 12 13 14 15 16 17 17 18 18 18 18 17 17 16 15 14 14 14 13 12 11 10 9 8 8 8 8 8 8 8 9 8 8 7 7 8 8 7 7 7 7 8 8 7 5 5 5 6 6 5 4 4 5 7 8 9 9 10 10 11 12 12
4 4 4 5 5 6 7 7 8 8 8 10 11 13 14 15 17 17 18 18 18 18 18 18 18 17 17 17 17 17 16 13 11 10 9 9 9 9 9 9 9 9 9 9 8 8 7 8 9 9 9 8 9 9 7 5 3 4 6 7 7 6 5 4 4 4 5 7 8 9 9 10 11 11
5 5 4 5 6 7 7 7 7 7 8 9 10 12 13 15 16 16 17 17 18 18 18 18 18 18 18 18 18 18 17 14 10 9 8 8 8 9 9 9 8 8 8 8 8 8 8 8 8 9 10 10 10 8 6 3 3 4 5 7 7 7 7 6 4 3 3 5 7 8 8 9 10 10
5 6 5 6 8 9 9 9 9 9 9 10 11 12 13 14 15 16 16 18 18 18 18 18 18 18 19 19 19 18 16 13 9 8 8 8 8 8 8 8 7 7 7 7 7 8 9 9 9 9 9 8 7 5 3 2 2 3 4 5 6 6 5 4 4 4 5 7 7 7 8 9 10 11
5 6 5 5 7 9 9 11 12 12 12 12 12 13 13 14 15 16 17 18 19 19 19 19 19 18 18 19 18 17 14 11 7 6 7 7 7 7 7 8 8 8 9 9 9 10 10 10 10 10 9 7 6 4 3 3 4 4 4 5 6 6 5 5 5 6 7 7 7 7 7 7 8 9
6 7 7 6 7 8 9 11 14 14 13 14 15 15 16 17 17 18 18 19 19 19 20 20 20 18 17 16 15 13 10 7 5 5 6 7 7 8 8 8 9 10 11 12 13 13 13 11 10 10 9 8 6 5 4 4 4 4 4 5 6 6 6 6 6 6 6 7 7 6 6 6 7 7
Wind_Direction
247 246 254 262 268 281 299 309 312 309 303 297 294 297 302 309 314 316 324 334 334 326 324 312 315 312 260 235 231 224 207 202 204 200 198 199 212 245 288 311 313 312 321 333 331 311 289 273 260 252 247 244 243 241 241 242 241 239 236 230 224 214 208 206 206 210 216 221 227 232 235 238 239 241
246 245 251 260 266 275 287 297 304 304 300 295 293 296 298 301 306 310 318 324 325 324 325 311 313 303 219 245 259 233 216 211 214 206 190 188 204 236 263 282 300 301 308 331 332 315 297 281 265 254 247 244 243 242 241 241 242 243 244 244 243 239 234 230 223 218 217 217 220 225 230 236 241 245
250 249 250 258 265 271 278 285 294 300 298 295 295 299 302 300 300 305 311 314 316 321 319 305 311 302 226 262 277 239 220 214 221 213 196 202 217 220 236 257 294 302 303 327 337 326 308 291 276 264 251 244 240 240 239 239 240 242 244 246 248 249 247 245 242 237 234 231 229 229 229 232 236 238
259 249 242 250 263 272 276 280 288 294 290 285 285 290 296 294 290 292 302 308 309 310 308 300 307 296 260 279 291 251 218 204 216 220 209 217 221 217 258 269 284 292 292 311 330 328 316 296 280 270 259 251 244 241 239 238 239 240 242 243 245 247 248 248 248 247 245 243 241 241 240 241 242 241
262 253 246 252 262 266 270 279 289 291 282 274 274 279 285 284 275 269 282 298 301 297 293 289 293 291 280 287 298 269 226 208 222 234 233 239 241 251 278 281 280 283 285 301 319 321 317 303 284 272 263 256 250 246 244 242 243 243 243 243 242 242 243 244 246 247 249 249 248 249 249 249 250 250
260 265 261 259 261 264 272 280 280 275 272 271 271 272 277 276 270 270 281 293 298 300 291 280 281 291 294 286 276 276 261 231 230 237 243 248 249 256 271 281 284 282 282 295 312 315 312 309 297 282 270 261 255 250 247 245 246 247 247 246 244 242 241 240 242 243 246 248 250 252 252 252 253 254
256 263 264 259 254 250 252 253 249 250 255 257 257 260 268 266 262 269 279 285 294 297 287 280 287 297 298 291 278 276 272 250 238 240 246 250 249 250 256 270 282 280 276 286 308 315 312 311 306 294 280 268 260 256 252 249 249 251 252 252 248 244 241 241 242 243 245 247 248 251 251 252 253 253
260 260 259 258 251 239 238 241 245 251 254 250 249 252 253 251 256 270 275 280 289 289 278 282 295 293 288 285 280 277 274 263 253 251 253 256 257 257 258 267 274 268 263 274 296 311 312 309 304 297 287 272 261 257 256 255 255 255 256 257 254 250 247 245 247 247 248 248 249 250 251 252 253 254
253 253 254 259 261 255 255 257 259 264 267 263 260 258 253 252 263 273 274 275 279 278 279 287 290 280 273 272 272 272 269 263 259 258 254 254 259 261 263 267 264 253 252 265 285 301 306 303 297 295 289 273 261 259 256 255 256 255 256 257 255 255 253 251 251 252 252 253 253 252 253 253 253 253
252 254 258 263 268 269 270 270 269 269 270 268 265 261 255 253 258 265 271 275 278 280 285 286 279 271 266 266 267 266 264 260 257 257 254 252 255 258 261 264 260 252 251 257 268 280 289 293 293 295 293 279 263 260 259 258 256 255 255 256 255 255 254 253 253 253 253 254 254 255 255 255 255 255
260 262 263 265 268 271 272 271 270 268 265 263 261 256 251 248 254 263 270 273 274 277 279 277 274 270 265 266 266 263 262 261 259 258 258 255 254 256 261 262 259 255 252 250 255 265 271 276 281 285 288 280 264 258 261 262 261 260 259 258 258 256 255 255 255 254 254 254 255 255 255 255 256 256
266 266 267 269 270 271 273 270 267 265 261 257 254 250 247 248 256 261 262 260 260 265 269 271 271 269 265 266 266 263 262 264 264 264 264 259 253 253 259 259 255 254 253 253 257 263 267 268 270 271 274 272 266 261 259 258 267 276 274 269 266 263 262 261 259 258 258 257 257 257 257 257 257 256
267 269 270 271 270 269 272 270 265 266 265 258 248 243 244 253 261 263 263 262 261 262 266 270 270 268 266 266 267 267 266 267 266 265 265 262 256 255 257 255 250 249 252 256 260 264 267 268 267 266 263 260 262 261 253 250 265 287 287 285 282 278 275 272 269 267 265 263 262 260 259 259 259 258
265 268 269 271 271 269 267 265 262 263 262 257 252 248 249 259 266 269 269 269 267 265 266 270 270 271 272 272 273 273 271 266 263 260 259 258 256 256 256 252 248 246 249 255 260 264 266 266 265 263 262 260 260 259 252 250 263 278 284 286 289 289 287 284 281 280 277 274 271 268 265 263 262 260
264 268 268 268 269 267 265 262 261 261 258 253 252 251 250 256 264 269 271 271 270 268 267 267 267 269 273 273 274 275 275 270 262 256 254 254 254 256 257 255 252 250 251 256 260 262 262 265 264 262 262 262 261 262 260 256 262 270 275 281 289 291 288 284 284 283 282 280 277 274 272 270 268 266
265 269 270 270 268 266 266 264 263 263 258 249 247 248 246 248 257 265 269 269 268 267 267 267 266 269 273 272 270 272 273 269 261 256 253 252 252 256 261 262 261 261 262 263 264 263 263 264 263 260 260 261 260 262 263 261 262 265 270 277 286 292 290 285 283 282 283 283 280 276 272 270 270 270
264 268 270 270 267 264 265 265 261 258 251 242 242 246 245 244 249 257 263 265 265 265 266 267 269 272 276 276 274 273 271 268 265 263 260 256 253 252 255 258 262 265 267 267 267 266 263 261 261 260 260 259 259 260 262 263 262 260 263 269 278 288 290 286 285 285 285 285 284 279 273 270 269 269
259 264 266 266 265 262 261 259 253 245 238 237 242 248 250 251 253 256 259 260 261 263 264 266 267 268 271 274 276 275 274 272 271 269 266 263 262 258 253 253 255 258 261 263 264 262 259 257 259 260 260 261 261 260 259 261 260 257 258 262 269 279 284 284 286 288 287 287 285 281 275 270 267 266
253 257 260 261 260 259 257 255 251 245 240 242 248 252 253 256 258 260 261 259 257 258 259 262 263 262 263 267 271 273 273 272 271 270 267 264 263 262 259 257 256 257 259 259 258 258 256 253 255 258 260 262 263 260 258 257 256 255 255 257 261 269 274 277 282 288 290 289 286 281 276 270 265 260
247 249 253 255 257 260 261 258 254 250 247 251 257 258 257 259 262 263 261 259 258 257 257 259 261 264 267 270 272 274 273 272 272 272 270 266 264 265 266 264 262 261 260 256 254 256 257 255 254 255 257 259 260 259 259 257 253 251 251 252 257 263 265 269 276 283 288 290 284 279 273 268 263 256
245 247 250 253 258 263 265 263 258 255 255 258 261 262 264 266 267 265 263 261 261 260 260 262 266 272 276 278 278 278 278 276 274 272 271 270 270 269 268 267 267 266 266 264 260 257 257 255 255 255 254 255 256 257 258 257 252 249 246 248 253 256 255 261 269 273 275 280 278 274 271 265 258 248
248 250 251 255 261 264 265 264 260 256 257 261 264 267 270 271 272 272 271 268 266 265 266 269 272 274 276 278 278 279 279 279 277 274 273 273 272 271 269 270 271 271 270 270 267 262 258 254 253 252 251 249 250 253 254 252 248 246 244 244 247 247 247 252 259 258 258 267 270 269 266 260 251 243
250 253 256 259 262 264 265 264 261 258 260 265 271 275 277 276 276 276 278 277 275 273 273 273 274 275 276 277 277 277 277 277 277 276 275 274 273 273 271 271 273 274 273 272 269 266 263 259 254 251 249 247 247 251 253 251 248 245 242 240 239 236 232 234 240 245 255 264 264 263 260 255 250 247
249 252 255 259 262 265 267 269 270 272 272 273 275 277 280 281 281 282 283 284 283 282 280 278 277 278 279 280 279 277 276 275 274 273 273 272 273 274 276 276 275 275 276 276 273 270 268 265 259 253 250 250 249 250 252 252 251 246 238 233 235 235 227 218 220 235 257 265 261 258 254 250 252 253
253 257 259 261 263 266 269 273 276 278 280 281 283 285 287 288 289 290 290 290 290 289 287 285 283 282 281 281 281 279 278 278 277 276 275 275 275 276 278 277 276 275 276 277 277 275 271 267 261 256 253 252 248 246 249 253 254 248 237 229 233 239 232 217 215 226 244 259 260 255 249 247 252 255
259 262 261 259 256 255 264 276 283 286 288 289 292 295 298 298 299 300 300 298 296 295 295 296 296 294 292 292 293 293 290 288 286 282 277 273 273 273 275 278 282 285 284 282 281 279 271 262 254 250 248 246 242 241 245 250 252 251 244 236 235 235 225 213 214 218 221 227 232 239 245 246 248 250
251 253 256 255 248 240 261 291 303 308 310 311 314 320 325 325 323 323 321 318 315 312 313 315 315 314 314 314 314 310 300 293 288 282 276 271 270 273 280 288 294 297 294 289 285 281 272 258 247 240 236 236 237 239 243 248 252 255 251 243 237 230 218 211 215 217 215 216 219 227 238 243 240 240
242 235 215 147 89 81 67 38 21 13 9 4 359 0 5 6 5 2 358 359 1 358 356 355 352 349 343 335 329 304 285 289 291 284 279 277 275 277 285 293 298 300 300 297 292 288 281 264 251 244 239 237 241 247 250 252 256 256 252 245 236 228 221 220 222 221 218 220 223 229 239 244 241 244
138 110 105 97 89 80 70 59 51 44 37 34 32 30 27 28 30 30 28 30 37 43 41 34 28 26 23 16 16 6 340 331 320 306 300 297 292 287 290 299 306 306 306 306 306 309 307 287 274 275 273 265 262 260 253 247 246 243 235 228 223 221 223 229 232 231 227 225 227 231 236 240 243 249
116 110 106 101 97 90 76 65 61 57 50 46 48 49 41 36 37 39 39 42 48 51 49 44 41 42 38 32 28 20 7 356 346 340 339 338 332 320 310 311 314 314 316 324 326 325 323 313 308 308 302 289 281 271 256 247 243 234 222 214 211 215 223 229 233 236 233 229 231 233 233 236 244 253
112 108 106 104 98 87 75 65 59 56 51 49 51 51 44 40 43 46 46 47 50 51 50 48 46 44 41 38 38 36 32 31 33 31 22 13 6 351 333 324 327 330 338 350 345 328 315 314 313 309 300 289 280 270 255 245 239 231 227 226 219 217 226 232 235 236 230 228 232 235 234 237 250 264
113 111 110 107 96 83 73 65 56 47 44 45 47 45 43 44 49 52 52 53 55 55 53 51 47 42 38 36 35 34 34 36 40 39 33 26 20 6 346 337 340 345 351 360 358 346 325 315 317 309 292 279 273 266 258 250 244 243 252 258 251 246 252 259 258 246 232 232 238 241 239 243 254 265
117 114 112 109 102 91 75 62 52 43 41 42 41 38 39 41 45 47 49 54 57 56 54 53 51 47 43 39 38 37 35 33 31 29 24 19 17 9 354 344 347 355 358 4 19 22 14 5 11 348 283 266 269 267 263 261 259 262 270 275 271 267 265 262 260 258 253 253 255 253 248 246 250 256
127 123 120 112 100 84 63 50 44 41 39 36 34 31 32 35 40 42 44 46 46 43 41 41 42 42 39 36 33 34 36 34 30 24 20 17 12 5 0 357 357 357 356 2 15 19 16 16 15 8 358 345 327 304 293 298 302 301 301 301 298 293 283 263 257 259 259 256 249 243 241 245 253 261
130 127 122 110 95 77 58 46 39 33 27 23 24 25 26 28 29 28 29 29 24 20 23 25 25 26 28 27 25 24 24 25 24 20 19 17 10 3 357 350 347 345 346 353 358 354 348 350 355 357 354 347 344 347 349 351 355 350 335 322 311 302 285 263 254 252 253 252 248 247 251 258 267 276
118 119 117 108 97 80 61 50 38 28 21 20 21 22 22 24 21 17 16 14 6 5 10 10 9 13 15 16 16 13 9 7 5 4 5 5 3 2 355 346 342 339 336 342 350 347 342 342 345 349 350 348 353 6 18 23 28 24 355 329 311 291 273 261 256 258 263 267 269 270 274 278 283 289
119 122 118 106 93 75 62 54 41 30 26 26 27 25 25 25 23 18 11 1 356 359 1 358 358 3 4 4 6 6 3 359 354 350 351 351 350 351 354 355 352 345 339 335 333 330 333 338 342 347 350 351 358 11 28 36 21 343 316 307 298 285 272 263 260 262 265 270 276 282 287 292 295 299
120 119 110 96 83 71 62 54 42 32 29 26 23 21 20 19 15 10 0 353 354 355 351 345 344 346 344 342 342 342 343 343 339 337 339 341 341 344 351 358 359 356 350 341 329 323 325 332 341 351 354 353 352 347 329 314 313 309 303 299 297 293 285 276 269 266 268 274 282 289 294 298 301 304
93 86 79 76 67 53 43 34 23 18 18 16 10 6 3 1 360 358 356 357 358 356 352 347 344 341 339 338 334 329 325 321 318 318 321 325 329 332 333 333 336 339 333 324 321 322 323 325 337 357 3 359 352 346 338 329 321 314 309 303 300 302 307 306 297 289 285 286 289 293 297 302 307 312
51 44 41 39 31 19 10 4 359 357 359 359 357 356 355 354 353 354 355 357 357 357 356 354 350 349 351 354 354 348 339 328 319 314 312 309 309 311 313 312 311 311 309 309 312 317 322 329 338 350 355 353 347 345 343 338 327 317 308 299 294 295 311 340 345 332 317 307 302 301 302 305 307 311
31 33 31 19 6 357 351 346 342 340 343 349 353 354 353 350 350 351 351 351 350 351 351 350 347 347 348 350 352 353 351 344 333 321 316 313 309 307 308 308 306 304 304 306 309 314 325 334 332 326 321 318 318 324 327 326 323 322 317 312 309 307 308 313 326 332 329 321 312 306 304 307 309 312
12 11 2 348 344 349 350 347 342 340 342 350 356 357 354 350 347 345 343 341 341 342 343 341 340 338 338 338 341 343 344 344 340 332 326 325 322 316 313 313 316 320 322 322 323 325 327 323 314 306 301 301 308 318 324 330 347 345 332 325 324 322 319 313 300 288 292 294 294 296 300 306 311 314
349 347 342 344 355 4 9 10 7 0 356 355 357 356 352 349 346 342 337 335 333 333 334 333 331 330 329 329 331 332 332 331 331 329 328 329 331 330 327 325 326 327 328 326 323 319 316 314 312 306 300 301 313 330 344 358 5 357 344 335 328 323 318 308 288 279 282 282 285 295 301 301 301 300
333 337 340 356 12 22 30 30 24 17 10 4 359 354 351 351 349 345 339 334 330 328 326 325 324 323 323 323 324 327 328 326 322 314 314 323 332 332 329 328 326 321 318 317 313 310 308 310 311 310 309 315 324 328 335 356 4 359 352 345 336 325 316 307 293 284 282 282 284 290 296 299 302 304
315 319 325 344 7 23 34 32 25 20 14 5 358 353 352 351 349 345 341 336 331 327 324 322 322 323 324 324 323 325 327 326 319 304 302 314 328 330 326 326 327 326 325 325 324 323 321 316 308 301 301 309 320 327 339 3 11 357 345 342 342 340 335 326 312 292 281 283 289 292 297 304 307 307
Height
1576 1575 1575 1574 1573 1573 1573 1573 1572 1571 1571 1570 1570 1569 1569 1569 1568 1567 1565 1565 1565 1564 1564 1564 1564 1563 1563 1563 1563 1563 1563 1563 1564 1564 1565 1565 1565 1566 1566 1565 1565 1565 1565 1565 1564 1563 1563 1563 1562 1562 1562 1562 1563 1563 1563 1563 1563 1563 1563 1563 1563 1563 1563 1564 1564 1564 1564 1565 1565 1565 1566 1566 1566 1567
1575 1575 1574 1573 1573 1572 1572 1572 1572 1571 1570 1569 1569 1569 1569 1568 1568 1567 1566 1565 1565 1565 1564 1564 1564 1563 1562 1562 1562 1562 1563 1563 1564 1564 1564 1564 1565 1565 1565 1565 1565 1565 1565 1565 1564 1563 1562 1562 1562 1562 1562 1562 1562 1562 1562 1562 1563 1563 1563 1563 1563 1563 1563 1563 1563 1563 1563 1563 1564 1564 1564 1565 1565 1566
1575 1574 1573 1572 1572 1571 1571 1571 1571 1570 1569 1569 1569 1568 1568 1567 1567 1567 1566 1565 1565 1565 1565 1564 1563 1563 1562 1562 1562 1562 1562 1563 1563 1563 1564 1564 1564 1564 1564 1564 1564 1564 1564 1564 1563 1563 1562 1562 1561 1561 1561 1561 1561 1561 1561 1561 1561 1562 1562 1562 1562 1562 1563 1563 1563 1563 1563 1563 1563 1563 1563 1564 1564 1564
1574 1573 1572 1572 1571 1571 1571 1570 1570 1570 1569 1568 1568 1567 1567 1566 1566 1566 1565 1564 1564 1564 1564 1564 1563 1562 1562 1562 1562 1562 1562 1562 1562 1563 1563 1564 1563 1563 1564 1564 1564 1564 1564 1563 1563 1562 1562 1561 1560 1560 1560 1560 1560 1560 1560 1560 1560 1560 1561 1561 1561 1561 1562 1562 1562 1562 1562 1562 1562 1562 1563 1563 1563 1563
1573 1572 1572 1571 1571 1570 1570 1570 1570 1569 1569 1568 1567 1566 1566 1565 1565 1565 1564 1563 1563 1563 1563 1563 1563 1562 1562 1562 1562 1562 1562 1562 1562 1562 1563 1563 1562 1563 1563 1563 1563 1563 1563 1563 1562 1562 1561 1560 1560 1559 1559 1559 1558 1559 1559 1559 1559 1559 1559 1559 1559 1560 1560 1561 1561 1561 1561 1561 1562 1562 1562 1562 1562 1562
1572 1571 1571 1570 1570 1570 1570 1570 1569 1568 1567 1567 1566 1565 1565 1564 1564 1564 1563 1563 1562 1562 1562 1562 1562 1561 1561 1561 1561 1561 1561 1561 1561 1562 1562 1562 1561 1562 1562 1562 1562 1562 1562 1562 1561 1561 1560 1559 1559 1558 1558 1558 1557 1557 1557 1558 1558 1558 1558 1558 1558 1558 1558 1559 1559 1559 1560 1560 1560 1561 1561 1561 1561 1561
1570 1570 1570 1569 1569 1568 1567 1566 1565 1564 1564 1564 1564 1563 1563 1562 1562 1562 1562 1561 1561 1560 1560 1561 1560 1560 1560 1560 1560 1560 1561 1561 1561 1561 1561 1561 1560 1560 1561 1561 1561 1561 1561 1561 1560 1559 1559 1558 1558 1557 1557 1557 1556 1556 1556 1557 1557 1557 1556 1556 1556 1557 1557 1557 1557 1558 1558 1558 1559 1559 1559 1560 1560 1560
1569 1568 1567 1567 1567 1566 1565 1564 1564 1563 1563 1562 1562 1562 1561 1561 1561 1561 1561 1560 1560 1559 1559 1559 1559 1558 1559 1559 1559 1560 1560 1560 1560 1560 1560 1559 1559 1559 1559 1560 1560 1560 1560 1559 1559 1558 1557 1557 1556 1556 1555 1555 1555 1555 1555 1555 1555 1555 1555 1555 1555 1555 1555 1555 1556 1556 1556 1556 1557 1557 1557 1558 1558 1558
1566 1565 1564 1565 1566 1565 1565 1564 1564 1563 1562 1562 1561 1561 1560 1559 1559 1560 1560 1560 1560 1559 1559 1558 1558 1558 1558 1558 1559 1559 1559 1559 1559 1559 1558 1558 1558 1558 1558 1559 1559 1558 1558 1558 1557 1557 1556 1556 1555 1555 1554 1554 1554 1554 1554 1554 1554 1554 1554 1554 1554 1554 1554 1554 1554 1554 1554 1554 1555 1555 1555 1555 1555 1556
1564 1564 1564 1564 1564 1563 1563 1563 1562 1562 1561 1560 1560 1559 1559 1558 1558 1558 1559 1559 1559 1558 1557 1557 1557 1557 1557 1557 1558 1558 1557 1557 1557 1557 1557 1557 1557 1557 1557 1558 1558 1557 1557 1557 1556 1555 1555 1554 1554 1554 1553 1553 1552 1552 1552 1552 1552 1552 1552 1552 1552 1552 1552 1552 1552 1552 1552 1552 1552 1553 1553 1553 1553 1553
1563 1563 1563 1562 1561 1561 1561 1561 1561 1560 1559 1558 1557 1557 1557 1557 1556 1556 1556 1557 1557 1557 1557 1557 1556 1556 1556 1555 1556 1556 1555 1555 1555 1556 1556 1555 1556 1555 1555 1556 1556 1556 1555 1555 1554 1554 1554 1553 1553 1552 1552 1551 1551 1551 1551 1551 1551 1551 1551 1551 1551 1551 1551 1550 1550 1550 1550 1550 1550 1550 1550 1551 1551 1551
1561 1561 1560 1560 1559 1559 1559 1559 1558 1558 1557 1557 1556 1556 1556 1556 1556 1556 1556 1556 1556 1556 1556 1556 1556 1555 1555 1554 1554 1554 1554 1554 1554 1554 1554 1554 1554 1554 1554 1554 1554 1554 1554 1553 1553 1553 1552 1552 1551 1551 1550 1550 1550 1550 1550 1550 1550 1550 1550 1549 1549 1549 1549 1549 1549 1548 1548 1548 1548 1548 1548 1548 1548 1548
1558 1559 1558 1558 1557 1557 1556 1556 1556 1555 1555 1555 1555 1555 1555 1555 1556 1555 1555 1555 1555 1555 1554 1555 1554 1554 1553 1553 1553 1552 1552 1552 1553 1553 1552 1552 1552 1552 1552 1552 1552 1552 1552 1551 1551 1551 1551 1550 1550 1549 1549 1549 1549 1549 1549 1549 1549 1549 1548 1548 1548 1548 1548 1547 1547 1546 1546 1546 1545 1545 1545 1545 1545 1545
1556 1556 1556 1555 1555 1555 1555 1554 1554 1553 1554 1553 1554 1554 1553 1553 1554 1554 1554 1554 1554 1553 1553 1552 1552 1552 1552 1552 1551 1551 1551 1551 1551 1550 1550 1550 1550 1550 1550 1550 1550 1550 1550 1549 1549 1549 1549 1548 1548 1547 1547 1547 1547 1547 1547 1547 1547 1547 1547 1547 1547 1546 1546 1545 1545 1544 1544 1544 1543 1543 1542 1542 1542 1542
1554 1554 1554 1553 1553 1553 1552 1552 1552 1551 1551 1551 1552 1552 1552 1552 1552 1552 1552 1552 1552 1552 1551 1551 1550 1550 1550 1550 1550 1549 1549 1549 1548 1548 1548 1548 1548 1548 1548 1548 1548 1548 1548 1547 1546 1546 1547 1546 1545 1545 1546 1546 1546 1546 1546 1545 1545 1545 1545 1545 1545 1544 1544 1544 1543 1542 1542 1541 1541 1540 1540 1539 1539 1539
1553 1552 1552 1551 1551 1551 1550 1550 1550 1549 1549 1549 1549 1550 1550 1550 1550 1550 1550 1550 1550 1550 1549 1549 1548 1548 1548 1548 1548 1547 1547 1546 1546 1546 1545 1545 1546 1546 1546 1546 1545 1545 1545 1545 1544 1544 1544 1544 1543 1543 1543 1543 1543 1543 1544 1543 1543 1543 1543 1543 1542 1542 1542 1542 1541 1540 1540 1539 1538 1538 1537 1537 1536 1536
1551 1551 1550 1550 1549 1549 1548 1548 1548 1548 1548 1548 1548 1548 1548 1548 1548 1548 1548 1548 1548 1548 1548 1547 1546 1546 1546 1545 1546 1546 1545 1544 1544 1544 1544 1544 1543 1543 1543 1543 1543 1543 1543 1542 1541 1541 1541 1541 1540 1540 1541 1541 1541 1541 1541 1541 1541 1541 1541 1541 1541 1540 1540 1539 1539 1538 1537 1537 1536 1535 1535 1535 1534 1534
1549 1549 1549 1548 1548 1547 1546 1546 1546 1546 1546 1547 1547 1547 1547 1547 1547 1546 1546 1546 1546 1546 1546 1545 1544 1544 1544 1543 1543 1544 1543 1543 1542 1542 1542 1542 1541 1541 1541 1541 1541 1540 1539 1539 1539 1538 1538 1538 1538 1538 1538 1538 1538 1538 1538 1538 1538 1538 1538 1539 1539 1538 1538 1538 1537 1536 1535 1534 1534 1533 1533 1533 1532 1532
1547 1547 1547 1547 1546 1546 1545 1545 1545 1545 1545 1545 1545 1545 1545 1545 1545 1544 1544 1544 1544 1544 1543 1542 1542 1542 1541 1541 1541 1541 1541 1540 1539 1539 1539 1538 1537 1538 1538 1537 1538 1537 1537 1537 1536 1534 1535 1535 1534 1535 1535 1536 1535 1536 1536 1536 1536 1536 1536 1537 1536 1536 1536 1536 1535 1534 1533 1532 1532 1531 1531 1531 1531 1531
1544 1544 1545 1545 1544 1544 1544 1544 1544 1544 1544 1544 1543 1543 1543 1543 1542 1542 1542 1542 1541 1541 1541 1540 1539 1539 1539 1539 1539 1539 1538 1537 1537 1536 1535 1535 1534 1535 1535 1534 1535 1535 1534 1534 1533 1532 1532 1532 1531 1531 1532 1532 1532 1532 1532 1533 1533 1534 1534 1535 1534 1534 1534 1534 1533 1532 1531 1530 1530 1530 1530 1530 1530 1530
1542 1542 1542 1542 1543 1542 1542 1542 1542 1542 1542 1542 1541 1541 1541 1541 1540 1540 1540 1539 1539 1539 1538 1538 1537 1537 1536 1536 1536 1536 1535 1534 1534 1533 1533 1532 1532 1532 1532 1530 1531 1531 1531 1532 1532 1531 1530 1529 1529 1528 1528 1528 1528 1529 1529 1529 1530 1531 1532 1532 1532 1532 1532 1532 1531 1530 1529 1529 1529 1528 1528 1528 1529 1529
1540 1540 1541 1541 1541 1540 1540 1540 1540 1540 1540 1539 1539 1539 1538 1538 1538 1537 1537 1537 1537 1536 1536 1535 1535 1534 1534 1533 1533 1533 1532 1531 1531 1531 1530 1530 1529 1529 1528 1527 1527 1527 1527 1529 1529 1528 1526 1526 1526 1525 1525 1524 1524 1525 1526 1526 1527 1528 1529 1529 1529 1529 1529 1529 1529 1528 1528 1528 1527 1527 1527 1527 1528 1528
1539 1539 1539 1539 1539 1538 1538 1538 1537 1537 1537 1537 1536 1536 1536 1536 1535 1535 1534 1534 1533 1533 1533 1532 1532 1532 1531 1531 1530 1530 1529 1529 1528 1528 1528 1528 1526 1525 1525 1525 1524 1523 1523 1525 1526 1524 1523 1523 1523 1523 1522 1522 1522 1523 1523 1524 1524 1525 1526 1526 1526 1526 1526 1526 1526 1526 1527 1526 1526 1526 1526 1526 1526 1527
1537 1537 1537 1537 1537 1536 1536 1536 1536 1535 1535 1534 1534 1534 1533 1533 1533 1532 1532 1531 1530 1529 1529 1529 1529 1528 1528 1528 1527 1527 1526 1526 1525 1525 1525 1525 1524 1523 1522 1522 1522 1521 1520 1521 1521 1520 1519 1519 1519 1519 1520 1519 1519 1520 1520 1520 1521 1522 1522 1523 1523 1523 1523 1524 1524 1524 1525 1525 1525 1525 1525 1526 1526 1526
1535 1536 1536 1535 1535 1535 1535 1535 1534 1534 1533 1533 1532 1532 1531 1531 1531 1530 1529 1528 1527 1527 1526 1525 1525 1525 1524 1524 1523 1523 1523 1522 1522 1522 1521 1521 1521 1520 1520 1519 1519 1518 1517 1517 1517 1517 1516 1516 1515 1516 1516 1516 1516 1516 1515 1516 1518 1518 1518 1520 1521 1521 1521 1522 1522 1522 1523 1523 1523 1524 1524 1524 1525 1525
1534 1534 1534 1534 1534 1534 1533 1534 1533 1533 1532 1531 1531 1530 1530 1529 1529 1528 1527 1527 1525 1524 1523 1523 1522 1522 1521 1521 1520 1520 1520 1519 1519 1519 1518 1518 1518 1517 1517 1516 1516 1515 1515 1514 1514 1514 1513 1512 1511 1511 1512 1513 1513 1513 1513 1513 1515 1515 1516 1517 1519 1519 1519 1519 1520 1520 1521 1521 1522 1522 1522 1523 1523 1524
1533 1533 1533 1534 1533 1533 1532 1532 1532 1532 1531 1531 1530 1529 1528 1528 1527 1527 1526 1525 1523 1522 1522 1521 1521 1520 1520 1519 1519 1519 1518 1518 1517 1516 1516 1516 1515 1515 1514 1514 1513 1513 1512 1512 1512 1512 1511 1509 1508 1507 1508 1509 1510 1511 1511 1511 1512 1513 1514 1515 1516 1517 1516 1516 1517 1518 1518 1519 1519 1520 1520 1521 1522 1522
1532 1532 1533 1533 1533 1532 1532 1532 1532 1531 1531 1530 1529 1529 1528 1528 1527 1526 1525 1523 1522 1521 1521 1521 1520 1520 1519 1519 1518 1518 1517 1516 1515 1515 1514 1514 1513 1513 1512 1512 1511 1511 1511 1511 1511 1510 1510 1508 1508 1507 1507 1508 1509 1509 1510 1510 1510 1511 1512 1512 1513 1514 1514 1515 1516 1516 1516 1517 1517 1518 1518 1519 1520 1520
1531 1532 1533 1533 1533 1532 1532 1532 1532 1532 1531 1530 1529 1529 1529 1529 1527 1526 1524 1523 1521 1521 1521 1521 1520 1520 1519 1518 1518 1517 1516 1515 1514 1513 1513 1512 1512 1511 1511 1510 1510 1509 1509 1509 1509 1509 1509 1508 1508 1507 1507 1507 1508 1508 1508 1508 1508 1509 1509 1509 1509 1510 1512 1513 1514 1515 1515 1515 1515 1516 1517 1518 1518 1518
1532 1532 1533 1533 1533 1533 1533 1533 1533 1532 1532 1531 1530 1530 1530 1529 1528 1526 1525 1523 1522 1521 1521 1521 1521 1520 1520 1519 1518 1516 1516 1515 1514 1513 1512 1511 1511 1510 1510 1509 1509 1509 1508 1508 1509 1509 1509 1509 1508 1507 1507 1507 1508 1508 1508 1508 1508 1508 1507 1507 1507 1508 1510 1512 1512 1512 1513 1514 1514 1515 1516 1516 1516 1517
1532 1533 1534 1534 1534 1534 1534 1534 1533 1533 1533 1532 1531 1531 1531 1530 1528 1527 1526 1524 1523 1523 1523 1523 1522 1522 1521 1519 1518 1517 1515 1514 1513 1513 1512 1511 1511 1511 1510 1510 1509 1509 1509 1509 1509 1509 1509 1509 1508 1508 1508 1507 1507 1508 1508 1508 1507 1507 1507 1508 1508 1509 1510 1511 1511 1511 1511 1512 1513 1513 1514 1514 1515 1515
1534 1535 1535 1535 1535 1535 1535 1535 1534 1534 1534 1533 1532 1532 1532 1531 1529 1528 1527 1526 1525 1525 1525 1524 1524 1523 1521 1520 1519 1518 1516 1515 1514 1513 1513 1512 1512 1511 1511 1510 1510 1509 1509 1509 1509 1509 1509 1508 1508 1508 1508 1507 1507 1507 1507 1507 1507 1507 1507 1507 1508 1509 1509 1510 1510 1510 1511 1511 1512 1512 1513 1513 1513 1513
1535 1536 1536 1536 1536 1536 1536 1536 1536 1536 1535 1534 1534 1534 1533 1532 1531 1529 1528 1527 1526 1526 1526 1525 1524 1523 1522 1521 1520 1519 1517 1516 1515 1514 1514 1513 1513 1512 1512 1511 1510 1510 1510 1510 1509 1509 1509 1508 1508 1507 1507 1506 1506 1506 1506 1507 1507 1507 1507 1507 1508 1508 1508 1509 1509 1509 1510 1510 1510 1511 1511 1512 1512 1511
1537 1537 1537 1538 1538 1537 1537 1537 1537 1537 1536 1536 1535 1534 1534 1533 1532 1530 1529 1528 1527 1527 1526 1526 1525 1524 1523 1522 1521 1520 1519 1517 1516 1515 1515 1514 1514 1513 1513 1512 1511 1511 1511 1510 1510 1509 1509 1509 1508 1507 1507 1507 1506 1506 1506 1507 1507 1506 1506 1506 1507 1507 1508 1508 1508 1508 1508 1509 1509 1509 1510 1511 1510 1510
1539 1539 1539 1539 1539 1539 1539 1539 1538 1538 1537 1537 1536 1535 1534 1533 1532 1531 1531 1530 1529 1528 1528 1527 1526 1525 1525 1523 1522 1521 1520 1518 1517 1516 1515 1515 1514 1514 1513 1513 1512 1512 1511 1511 1511 1510 1510 1509 1509 1508 1507 1507 1507 1507 1507 1507 1506 1506 1506 1506 1506 1506 1507 1507 1507 1507 1508 1508 1508 1509 1509 1509 1509 1509
1539 1540 1540 1540 1541 1541 1540 1540 1539 1539 1538 1537 1537 1536 1535 1534 1533 1532 1532 1531 1530 1530 1529 1528 1527 1526 1525 1524 1523 1522 1521 1519 1518 1517 1516 1515 1515 1514 1514 1513 1513 1512 1512 1512 1511 1510 1510 1509 1509 1508 1507 1507 1507 1507 1507 1507 1507 1506 1506 1506 1506 1506 1506 1506 1506 1506 1506 1506 1507 1507 1507 1507 1507 1506
1540 1541 1541 1541 1541 1541 1541 1540 1540 1539 1538 1538 1537 1536 1535 1535 1534 1533 1532 1532 1531 1530 1529 1528 1528 1527 1526 1525 1524 1523 1521 1520 1519 1518 1517 1516 1516 1515 1514 1514 1513 1513 1512 1512 1511 1511 1510 1510 1509 1508 1508 1508 1507 1507 1508 1508 1507 1507 1506 1506 1506 1506 1506 1506 1506 1506 1505 1505 1505 1505 1504 1504 1504 1503
1541 1541 1542 1542 1542 1542 1541 1541 1541 1540 1539 1538 1538 1537 1536 1535 1534 1534 1533 1532 1532 1531 1530 1529 1528 1527 1526 1525 1524 1523 1522 1521 1520 1519 1518 1517 1516 1516 1515 1514 1514 1513 1512 1512 1511 1511 1510 1509 1509 1509 1508 1508 1508 1508 1508 1508 1508 1507 1506 1506 1506 1505 1505 1505 1504 1504 1504 1504 1503 1503 1502 1502 1501 1501
1542 1542 1542 1542 1542 1542 1542 1542 1541 1540 1540 1539 1538 1537 1536 1536 1535 1535 1534 1533 1532 1531 1530 1529 1528 1527 1527 1526 1525 1524 1522 1521 1520 1519 1518 1517 1517 1516 1515 1515 1514 1513 1513 1512 1511 1511 1510 1509 1509 1508 1508 1508 1508 1508 1507 1507 1507 1506 1506 1505 1504 1504 1503 1503 1503 1503 1503 1502 1502 1502 1501 1500 1500 1499
1543 1543 1543 1543 1543 1543 1543 1542 1542 1541 1540 1539 1539 1538 1537 1536 1536 1535 1534 1533 1532 1531 1531 1530 1528 1527 1526 1526 1525 1524 1522 1521 1520 1519 1518 1518 1517 1516 1515 1515 1514 1513 1513 1512 1512 1511 1510 1509 1509 1508 1508 1508 1507 1507 1507 1506 1506 1506 1505 1504 1503 1503 1502 1502 1502 1502 1501 1501 1501 1500 1500 1499 1498 1498
1544 1544 1544 1544 1544 1544 1543 1543 1542 1541 1541 1540 1539 1539 1538 1537 1536 1535 1534 1533 1533 1532 1531 1530 1528 1527 1526 1525 1524 1523 1522 1521 1520 1519 1518 1518 1517 1516 1515 1515 1514 1513 1512 1512 1511 1511 1510 1510 1509 1509 1508 1507 1506 1506 1506 1505 1505 1504 1504 1503 1502 1502 1502 1501 1501 1501 1501 1500 1499 1499 1498 1498 1497 1497
1544 1544 1544 1544 1544 1544 1544 1543 1543 1542 1541 1541 1540 1540 1539 1538 1537 1536 1535 1534 1533 1532 1530 1529 1528 1527 1526 1525 1524 1522 1521 1520 1519 1519 1518 1517 1516 1516 1515 1514 1513 1513 1512 1512 1511 1511 1511 1510 1510 1509 1508 1507 1506 1506 1505 1505 1504 1504 1503 1502 1502 1502 1502 1501 1501 1500 1499 1499 1498 1497 1497 1496 1496 1496
1544 1544 1544 1544 1544 1544 1544 1543 1543 1542 1542 1541 1540 1540 1539 1538 1537 1536 1535 1534 1532 1531 1530 1529 1527 1526 1525 1524 1523 1522 1521 1520 1519 1518 1517 1517 1516 1515 1515 1514 1513 1513 1512 1512 1511 1511 1510 1510 1509 1508 1507 1506 1506 1505 1505 1504 1504 1503 1503 1502 1502 1501 1501 1501 1501 1500 1499 1498 1497 1497 1496 1496 1495 1495
1544 1544 1544 1544 1544 1544 1544 1543 1543 1542 1541 1541 1540 1540 1539 1538 1537 1536 1534 1533 1531 1530 1529 1528 1527 1526 1524 1523 1522 1521 1520 1519 1519 1518 1517 1516 1515 1515 1514 1514 1513 1512 1512 1511 1511 1510 1510 1509 1509 1508 1507 1506 1505 1505 1504 1504 1504 1503 1502 1501 1501 1500 1500 1500 1500 1499 1498 1497 1497 1496 1496 1495 1495 1494
1544 1544 1544 1544 1544 1544 1544 1543 1543 1542 1541 1541 1540 1539 1538 1537 1536 1535 1533 1532 1531 1529 1528 1526 1525 1524 1523 1522 1521 1520 1519 1518 1518 1517 1516 1516 1515 1515 1514 1513 1513 1512 1511 1511 1510 1509 1509 1508 1508 1507 1506 1505 1504 1504 1504 1504 1503 1502 1501 1501 1500 1499 1499 1499 1498 1498 1497 1496 1496 1495 1495 1495 1494 1493